Le nostre stazioni meteo in Italia

Pubblicità
Il mio iltempo24.it
Bari, Italia (16271): Temperatura & dewpoint: 15.04.2019 09:00:00 - 21.04.2019 09:00:00 (CEST)Bari, Italia (16271): velocità del vento: 15.04.2019 09:00:00 - 21.04.2019 09:00:00 (CEST)Bari, Italia (16271): direzione del vento: 15.04.2019 09:00:00 - 21.04.2019 09:00:00 (CEST)Bari, Italia (16271): reduced air pressure: 15.04.2019 09:00:00 - 21.04.2019 09:00:00 (CEST)
Data & Tempo tt [°C] td [°C] ff [km/h] ff [kn] dd ppp [hPa]
21.04.2019 09:00:00 - - - - - -
21.04.2019 08:00:00 14,5 8,2 4 2 S 1023,1
21.04.2019 07:00:00 12,9 6,4 9 5 S 1023,4
21.04.2019 06:00:00 12,8 6,5 11 6 SSO 1023,3
21.04.2019 05:00:00 12,6 6,4 13 7 S 1023,1
21.04.2019 04:00:00 13,0 6,5 13 7 SSO 1023,2
21.04.2019 03:00:00 13,6 6,9 13 7 ONO 1023,5
21.04.2019 02:00:00 14,2 7,7 9 5 ONO 1023,9
21.04.2019 01:00:00 14,6 8,3 9 5 ONO 1024,3
21.04.2019 00:00:00 15,2 8,4 9 5 ONO 1024,2
20.04.2019 23:00:00 16,6 8,2 4 2 NO 1024,3
20.04.2019 22:00:00 17,0 8,6 5 3 NO 1024,6
20.04.2019 21:00:00 16,9 10,0 5 3 NO 1024,4
20.04.2019 20:00:00 17,4 9,7 5 3 NO 1024,2
20.04.2019 19:00:00 17,9 11,9 8 4 NO 1023,9
20.04.2019 18:00:00 18,0 12,2 11 6 NO 1024,4
20.04.2019 17:00:00 18,0 12,8 13 7 NO 1024,5
20.04.2019 16:00:00 18,3 13,1 13 7 NNO 1024,7
20.04.2019 15:00:00 17,8 12,2 13 7 NO 1025,3
20.04.2019 14:00:00 17,7 11,0 18 10 NO 1025,5
20.04.2019 13:00:00 16,9 10,5 18 10 NO 1025,8
20.04.2019 12:00:00 16,7 9,8 21 11 NO 1026,2
20.04.2019 11:00:00 16,5 9,1 18 10 NO 1026,3
20.04.2019 10:00:00 16,1 8,5 16 9 NO 1026,3
20.04.2019 09:00:00 15,9 7,3 18 10 NO 1026,1
20.04.2019 08:00:00 13,9 5,7 13 7 O 1026,0
20.04.2019 07:00:00 12,4 6,4 11 6 O 1025,4
20.04.2019 06:00:00 12,2 6,8 9 5 O 1025,2
20.04.2019 05:00:00 12,2 7,7 13 7 O 1025,4
20.04.2019 04:00:00 12,2 8,2 16 9 ONO 1025,5
20.04.2019 03:00:00 12,6 8,2 15 8 O 1026,2
20.04.2019 02:00:00 13,3 8,9 15 8 O 1026,8
20.04.2019 01:00:00 14,8 10,4 11 6 ONO -
20.04.2019 00:00:00 14,8 10,4 11 6 NO 1027,4
19.04.2019 23:00:00 15,2 10,8 8 4 ONO 1027,4
19.04.2019 22:00:00 15,1 11,5 13 7 NO 1027,4
19.04.2019 21:00:00 15,7 11,6 13 7 ONO 1027,2
19.04.2019 20:00:00 16,0 11,3 11 6 NO 1026,6
19.04.2019 19:00:00 16,7 10,0 9 5 NNO 1026,6
19.04.2019 18:00:00 17,4 12,7 11 6 NO 1026,8
19.04.2019 17:00:00 18,0 13,2 13 7 NO 1026,9
19.04.2019 16:00:00 18,0 13,2 15 8 NO 1027,1
19.04.2019 15:00:00 18,1 13,3 18 10 ONO 1027,5
19.04.2019 14:00:00 18,1 12,7 15 8 ONO 1028,0
19.04.2019 13:00:00 16,8 12,3 15 8 NO 1028,1
19.04.2019 12:00:00 16,1 11,6 16 9 NO 1028,3
19.04.2019 11:00:00 15,6 11,1 15 8 NO -
19.04.2019 10:00:00 14,8 10,2 16 9 ONO 1028,1
19.04.2019 09:00:00 14,4 9,6 13 7 NO 1027,7
19.04.2019 08:00:00 13,1 7,9 8 4 O 1027,3
19.04.2019 07:00:00 12,0 7,3 13 7 O 1027,0
19.04.2019 06:00:00 11,4 7,1 8 4 O 1026,6
19.04.2019 05:00:00 11,6 7,3 4 2 O 1026,5
19.04.2019 04:00:00 11,9 7,8 4 2 O 1026,4
19.04.2019 03:00:00 12,1 8,0 11 6 ONO 1026,2
19.04.2019 02:00:00 13,0 9,0 8 4 ONO 1026,1
19.04.2019 01:00:00 13,9 9,5 8 4 ONO 1026,0
19.04.2019 00:00:00 14,7 10,3 5 3 NO 1025,8
18.04.2019 23:00:00 15,2 10,8 5 3 ONO 1025,7
18.04.2019 22:00:00 15,5 11,2 8 4 NO 1025,6
18.04.2019 21:00:00 15,8 11,1 15 8 NO 1025,0
18.04.2019 20:00:00 15,9 11,2 11 6 NO 1024,3
18.04.2019 19:00:00 16,7 11,6 15 8 NNO 1023,6
18.04.2019 18:00:00 18,3 11,3 5 3 NNO 1023,3
18.04.2019 17:00:00 18,2 12,6 11 6 NO 1023,2
18.04.2019 16:00:00 19,4 14,1 8 4 NE 1023,0
18.04.2019 15:00:00 19,2 14,2 13 7 NE 1023,0
18.04.2019 14:00:00 18,6 13,6 15 8 ENE 1023,0
18.04.2019 13:00:00 16,8 11,9 18 10 NO 1022,7
18.04.2019 12:00:00 16,3 10,8 24 13 ONO 1022,8
18.04.2019 11:00:00 15,9 9,3 22 12 NO 1022,6
18.04.2019 10:00:00 15,6 7,8 15 8 NO 1022,4
18.04.2019 09:00:00 14,7 5,7 9 5 ONO 1022,1
18.04.2019 08:00:00 12,4 4,8 15 8 O 1021,9
18.04.2019 07:00:00 12,0 4,4 15 8 O 1021,5
18.04.2019 06:00:00 11,4 4,3 4 2 O 1021,2
18.04.2019 05:00:00 11,5 4,2 5 3 O 1021,0
18.04.2019 04:00:00 11,7 4,6 13 7 O 1020,8
18.04.2019 03:00:00 12,0 5,1 13 7 ONO 1020,9
18.04.2019 02:00:00 12,2 5,7 13 7 O 1021,0
18.04.2019 01:00:00 12,8 6,8 9 5 NO 1021,1
18.04.2019 00:00:00 13,3 7,7 5 3 ONO 1021,2
17.04.2019 23:00:00 13,9 9,1 9 5 ONO 1021,0
17.04.2019 22:00:00 15,2 10,8 4 2 NO 1021,0
17.04.2019 21:00:00 15,5 11,0 4 2 NO 1020,1
17.04.2019 20:00:00 15,9 10,2 5 3 NO 1019,5
17.04.2019 19:00:00 16,6 9,2 5 3 NO 1019,3
17.04.2019 18:00:00 17,0 9,6 9 5 NO 1019,2
17.04.2019 17:00:00 17,4 10,2 15 8 NO 1019,4
17.04.2019 16:00:00 17,7 9,8 11 6 NO 1019,6
17.04.2019 15:00:00 17,6 10,7 13 7 NO 1019,7
17.04.2019 14:00:00 17,4 11,6 21 11 NO 1020,1
17.04.2019 13:00:00 16,4 11,3 18 10 NO 1020,2
17.04.2019 12:00:00 16,8 11,0 15 8 NO 1020,3
17.04.2019 11:00:00 16,5 10,5 11 6 ENE 1020,2
17.04.2019 10:00:00 16,6 8,7 8 4 NNO 1020,1
17.04.2019 09:00:00 - - - - - -
17.04.2019 08:00:00 12,1 8,5 9 5 O 1019,7
17.04.2019 07:00:00 11,4 8,0 8 4 ONO 1019,6
17.04.2019 06:00:00 11,7 8,1 8 4 ONO 1019,3
17.04.2019 05:00:00 11,9 8,0 4 2 O 1019,5
17.04.2019 04:00:00 11,9 8,1 4 2 O 1019,4
17.04.2019 03:00:00 12,2 8,2 5 3 O 1019,6
17.04.2019 02:00:00 12,7 8,5 4 2 O 1019,7
17.04.2019 01:00:00 13,0 9,0 5 3 O 1019,9
17.04.2019 00:00:00 13,6 9,8 9 5 O 1020,1
16.04.2019 23:00:00 14,4 11,9 2 1 ONO 1020,3
16.04.2019 22:00:00 15,0 11,4 4 2 NO 1020,3
16.04.2019 21:00:00 15,1 10,9 0 0 N 1019,9
16.04.2019 20:00:00 15,6 11,1 0 0 N 1019,4
16.04.2019 19:00:00 16,7 11,8 5 3 NO 1019,3
16.04.2019 18:00:00 17,0 12,1 15 8 NO 1019,1
16.04.2019 17:00:00 17,1 12,2 13 7 NO 1019,3
16.04.2019 16:00:00 17,3 12,8 15 8 NO 1019,3
16.04.2019 15:00:00 17,2 11,9 13 7 NO 1019,7
16.04.2019 14:00:00 16,9 11,3 15 8 NNO 1020,0
16.04.2019 13:00:00 16,3 10,1 18 10 NO 1020,1
16.04.2019 12:00:00 16,2 9,6 16 9 NO 1020,0
16.04.2019 11:00:00 15,7 9,5 15 8 NO 1019,9
16.04.2019 10:00:00 15,1 9,2 16 9 NO 1019,8
16.04.2019 09:00:00 14,0 7,9 8 4 ONO 1019,6
16.04.2019 08:00:00 12,2 7,5 5 3 O 1019,4
16.04.2019 07:00:00 11,2 6,5 4 2 O 1018,9
16.04.2019 06:00:00 11,5 6,6 13 7 O 1018,2
16.04.2019 05:00:00 11,8 6,7 9 5 O 1018,0
16.04.2019 04:00:00 11,9 7,6 13 7 O 1017,9
16.04.2019 03:00:00 12,3 8,3 13 7 O 1017,7
16.04.2019 02:00:00 13,0 9,0 11 6 O 1018,1
16.04.2019 01:00:00 13,5 9,3 13 7 O 1018,1
16.04.2019 00:00:00 13,9 9,5 15 8 ONO 1018,0
15.04.2019 23:00:00 14,0 9,8 11 6 O 1017,9
15.04.2019 22:00:00 15,2 10,6 15 8 ONO 1017,6
15.04.2019 21:00:00 15,3 10,7 28 15 NO 1016,7
15.04.2019 20:00:00 15,4 11,0 15 8 NO 1016,2
15.04.2019 19:00:00 15,7 11,2 21 11 NNO 1015,5
15.04.2019 18:00:00 16,0 11,5 16 9 O 1015,2
15.04.2019 17:00:00 16,2 10,9 18 10 NO 1014,5
15.04.2019 16:00:00 17,0 11,9 16 9 NO 1014,2
15.04.2019 15:00:00 16,9 11,6 15 8 NO 1014,3
15.04.2019 14:00:00 16,5 11,6 9 5 NNO 1014,4
15.04.2019 13:00:00 16,3 11,6 16 9 NO 1013,9
15.04.2019 12:00:00 15,5 11,2 11 6 NO 1013,4
15.04.2019 11:00:00 13,4 11,1 13 7 NO 1013,2
15.04.2019 10:00:00 12,3 9,6 9 5 ONO 1012,6
15.04.2019 09:00:00 11,0 8,4 8 4 SSO 1012,1

tt = Temperatura
td = dewpoint
ff = velocità del vento
dd = direzione del vento
ppp = reduced air pressure

Stazioni seguenti

WeatherPro
AMSI
MeteoEarth